Regional Weather Roundup
Issued by NWS Austin/San Antonio, TX

Home | Current Version | Previous Version | Text Only | Print | Product List | Glossary On
Versions: 1 2 3 4 5 6 7 8 9 10 11 12 13 14 15 16 17 18 19 20 21 22 23 24 25 26 27 28 29 30 31 32 33 34 35 36 37 38 39 40 41 42 43 44 45 46 47 48 49 50
000
ASUS44 KEWX 242310
RWREWX
SOUTH TEXAS REGIONAL WEATHER ROUNDUP
NATIONAL WEATHER SERVICE AUSTIN/SAN ANTONIO TX
600 PM CDT SUN JUN 24 2018

NOTE: "FAIR" INDICATED FEW OR NO CLOUDS BELOW 12,000 FEET WITH NO
SIGNIFICANT WEATHER AND/OR OBSTRUCTIONS TO VISIBILITY.

* - THESE STATIONS ARE NOT NWS OR FAA STATIONS...AND ARE NOT SUBJECT
    TO NWS AND FAA QUALITY CONTROL.

TXZ171-172-183>190-250000-
TEXAS HILL COUNTRY AND EDWARDS PLATEAU

CITY           SKY/WX    TMP DP  RH WIND       PRES   REMARKS
JUNCTION       SUNNY     98  62  30 S20G33    29.79S HX  99
*LLANO         SUNNY    100  63  28 SE15G26   29.81F HX 102
BURNET         SUNNY     95  66  38 S16G30    29.83F HX  98
*HORSESHOE BAY SUNNY     96  63  33 SE15G26   29.80F HX  98
*KERRVILLE     SUNNY     97  64  33 S20G30    29.84F HX  98
*FREDERICKSBRG SUNNY     94  59  30 S13G18    29.84S HX  94
*ROCKSPRINGS   SUNNY     97  59  28 SE20G32   29.87F HX  96
*BOERNE STAGE  MOSUNNY   91  64  40 S16       29.86F HX  93
*CASTROVILLE   MOSUNNY   96  64  35 SE17G23   29.82F HX  97
HONDO          SUNNY     99  69  37 SE18      29.81F HX 105
*UVALDE        SUNNY     99  63  31 SE21G28   29.78F HX 101
DEL RIO        SUNNY    103  59  23 SE28G33   29.69F HX 103
LAUGHLIN AFB   MOSUNNY  105  58  21 SE25G33   29.70F HX 104
CARRIZO SPRGS  MOSUNNY   99  63  30 SE14G24   29.74F HX 100
*EAGLE PASS    CLEAR    104  54  18 SE17G28   29.73F HX 102
*FAITH RANCH   SUNNY    104  61  24 SE15G24   29.75S HX 105
$$

TXZ173-191>194-202-209-217>225-228-250000-
CENTRAL AND SOUTH CENTRAL TEXAS

CITY           SKY/WX    TMP DP  RH WIND       PRES   REMARKS
GEORGETOWN     SUNNY     94  70  45 S21       29.83F HX 100
AUSTIN/BERGSTM PTSUNNY   96  70  42 S17       29.82F HX 102
AUSTIN/MABRY   SUNNY     95  66  38 SE12G22   29.84S HX  98
*AUSTIN/EXEC   MOSUNNY   91  72  52 S17G24    29.84F HX  98
*LAGO VISTA    MOSUNNY   94  66  39 S12G23    29.84F HX  98
SAN MARCOS     MOSUNNY   93  71  48 S17       29.84S HX 100
NEW BRAUNFELS  MOSUNNY   95  69  42 SE22      29.82F HX 100
RANDOLPH AFB   MOSUNNY   94  70  46 S17G25    29.83F HX  99
PT SAN ANTONIO MOSUNNY   96  68  40 SE16G29   29.80F HX 100
SAN ANTONIO    PTSUNNY   95  68  41 SE20G26   29.83F HX  99
STINSON FIELD  PTSUNNY   96  71  44 SE17G23   29.80F HX 103
*LA GRANGE     SUNNY     92  74  54 SE12      29.84S HX 101
*GIDDINGS      SUNNY     91  70  49 S14       29.86F HX  97
*GONZALES      SUNNY     92  72  51 SE15G21   29.83F HX 100
$$

TXZ163>164-176>182-195>201-210>213-226-227-235-250000-
SOUTHEAST TEXAS

CITY           SKY/WX    TMP DP  RH WIND       PRES   REMARKS
COLLEGE STN    SUNNY     93  73  52 S16G24    29.86S HX 102
*BRYAN         MOSUNNY   91  72  53 SE15G24   29.87F HX  98
*CALDWELL      MOSUNNY   92  71  50 S16G24    29.86S HX  99
*CROCKETT      MOSUNNY   91  75  59 SE12G17   29.90F HX 102
*BRENHAM       PTSUNNY   91  74  55 S12G21    29.87S HX 100
HUNTSVILLE     PTSUNNY   91  72  53 VRB6G20   29.88S HX  98
CONROE         LGT RAIN  91  75  59 S15       29.89S HX 101
HOUSTON BUSH   FAIR      90  74  59 S16       29.88F HX  99
HOUSTON HOBBY  PTSUNNY   88  76  67 S16G24    29.89F HX  99
*HOUSTON SW AP PTSUNNY   87  77  70 SE10G20   29.89F HX  99
PEARLAND       FAIR      88  77  69 S17G24    29.90F HX 100
HOUSTON HOOKS  FAIR      91  75  59 SE12G20   29.88S HX 101
ELLINGTON FLD  PTSUNNY   88  77  70 SE17G23   29.92S HX 100
SUGAR LAND     FAIR      91  74  57 S17       29.88F HX 100
*HOUSTON EXEC    N/A    N/A N/A N/A MISG        N/A
*CLEVELAND MUN FAIR      90  70  52 S14G20    29.91S HX  95
*WHARTON       SUNNY     87  72  59 SE14      29.88F HX  93
*COLUMBUS      FAIR      88  72  59 S10G18    29.87F HX  95
*EAGLE LAKE    CLEAR     91  75  61 S12       29.87F HX 101
$$

TXZ214>216-236>238-250000-
THE UPPER TEXAS COAST

CITY           SKY/WX    TMP DP  RH WIND       PRES   REMARKS
*ORANGE        FAIR      87  77  72 S9G17     29.94F HX  99
PORT ARTHUR    FAIR      89  75  63 S16G25    29.92F HX  99
GALVESTON      FAIR      86  78  77 S16       29.92F HX  98
ANGLETON       FAIR      88  76  67 SE15      29.88F HX  99
*BAY CITY      PTSUNNY   88  76  68 SE13G20   29.88F HX  98
PALACIOS       SUNNY     87  78  74 S15G24    29.87F HX 100
$$

TXZ229>234-239>247-250000-
TEXAS COASTAL BEND AND RIO GRANDE PLAINS

CITY           SKY/WX    TMP DP  RH WIND       PRES   REMARKS
VICTORIA       PTSUNNY   89  72  56 SE20      29.85F HX  96
*BEEVILLE      MOSUNNY   90  74  60 SE18G25   29.83F HX  99
ROCKPORT       MOSUNNY   87  76  69 SE15      29.84F HX  97
*PORT ARANSAS  MOSUNNY   85  77  77 SE16      29.87S HX  96
*PORT LAVACA   PTSUNNY   88  75  64 SE20      29.86F HX  98
*INGLESIDE     MOSUNNY   87  77  71 S15       29.84F HX  99
CORPUS CHRISTI CLOUDY    85  79  82 SE17      29.83F HX  98
CORPUS NAS     PTSUNNY   87  78  74 SE20      29.84S HX 100
*ROBSTOWN      MOSUNNY   85  76  73 SE15      29.83S HX  95
ALICE          MOSUNNY   89  73  59 SE20G25   29.81S HX  97
KINGSVILLE NAS CLOUDY    88  75  65 SE18G25   29.81F HX  97
COTULLA        MOSUNNY   98  67  36 SE15G21   29.77F HX 102
LAREDO         MOSUNNY   99  69  37 SE22      29.76F HX 105
$$

TXZ248>255-250000-
DEEP SOUTH TEXAS

CITY           SKY/WX    TMP DP  RH WIND       PRES   REMARKS
BROWNSVILLE    FAIR      90  76  63 SE14G22   29.83S HX 101
PORT ISABEL    FAIR      87  75  67 SE20      29.83S HX  96
*SOUTH PADRE   NOT AVBL
HARLINGEN      PTSUNNY   90  75  61 SE20      29.81S HX 100
*HEBBRONVILLE  PTSUNNY   92  70  48 SE17      29.80S HX  98
MCALLEN        MOSUNNY   93  76  57 SE18      29.80F HX 105
*WESLACO       NOT AVBL
FALFURRIAS     MOSUNNY   92  74  56 SE10G17   29.79F HX 101
EDINBURG       FAIR      93  72  49 SE16      29.80F HX 101
*ZAPATA        FAIR      96  67  38 SE13G21   29.75F HX  99
$$

TXZ213>215-236>238-242>244-246-247-251-254-255-250000-
CMAN STATIONS

STATION/POSITION TIME  TEMP    WIND        PRES    WAVE
                       AIR SEA DIR/SP/G            HT/PER
                 (UTC) (F)     (DEG/KT/KT) (MB)    (FT/S)
SABINE PASS      2248          180/ 14/ 19   N/A
SEA RIM ST PARK  2300   85     180/ 13/ 16 1013.6
NORTH JETTY/GLS  2236   83 85  170/ 19/ 21 1012.5
EAGLE POINT      2236   85 86  180/ 18/ 20 1012.7
MORGANS POINT    2248          150/ 10/ 15   N/A
MISSION/ARANSAS  2200          120/  8     1012.0
PORT O`CONNOR    2248          140/ 22/ 27   N/A
PORT ARANSAS     2300   83 86  120/ 16/ 18 1010.8
BAFFIN BAY       2248          120/ 16/ 20   N/A
PORT ISABEL      2248          120/ 11/ 14   N/A
$$



USA.gov is the U.S. government's official web portal to all federal, state and local government web resources and services.